[[{"header":{"parameterUnit":"m.s-1","parameterCategory":1,"la1":30.2991,"la2":30.254,"lo1":-89.0895,"lo2":-89.0444,"dy":0.0017,"dx":0.0017,"nx":28,"ny":28,"refTime":"2024-04-28T09:00:00:Z","depth":0,"parameterNumber":2,"parameterNumberName":"U-component_of_WINDS"},"data":[0,0,0,0,0,0,0,0,0,0,0,0,0,0,0,0,0,0,0,0,0,0,0,0,0,0,0,0,0,0,0,0,0,0,0,0,0,0,0,0,0,0,0,0,0,0,0,0,0,0,0,0,0,0,0,0,0,0,-4.1492,-4.1494,0,-4.1642,-4.1644,-4.1645,-4.1678,-4.1677,-4.1676,-4.1675,-4.1828,-4.1833,-4.1838,0,0,0,0,0,0,0,0,0,0,0,0,0,-4.1234,-4.1239,-4.1492,-4.1494,-4.1496,-4.1642,-4.1644,-4.1646,-4.1678,-4.1677,-4.1676,-4.1675,-4.1826,-4.1832,-4.1838,0,0,0,0,0,0,0,0,0,0,0,0,0,-4.1361,-4.1241,-4.1492,-4.153,-4.1535,-4.1641,-4.1644,-4.1646,-4.1679,-4.1677,-4.1675,-4.1674,-4.1824,-4.1831,-4.1839,-4.1918,0,0,-4.1862,-4.1866,0,0,0,0,0,0,0,0,-4.1354,-4.1371,-4.1522,-4.1527,-4.1533,-4.164,-4.1609,-4.1737,-4.1679,-4.1624,-4.1675,-4.1673,-4.1766,-4.1779,-4.181,-4.1925,-4.1932,-4.1863,-4.1868,-4.1871,-4.1873,0,0,0,0,0,0,0,-4.1345,-4.1365,-4.1551,-4.1524,-4.1531,-4.1539,-4.1556,-4.1633,-4.1702,-4.1629,-4.1631,-4.1649,-4.1769,-4.1803,-4.1814,-4.1934,-4.1863,-4.1869,-4.1874,-4.1877,-4.2122,-4.2124,0,0,0,0,0,0,-4.133,-4.1357,-4.1547,-4.1556,-4.1438,-4.1545,-4.1563,-4.1607,-4.1702,-4.1715,-4.165,-4.165,-4.1791,-4.1805,-4.182,-4.1918,-4.1871,-4.1878,-4.1882,-4.212,-4.2122,-4.2124,0,0,0,0,0,0,-4.1324,-4.1347,-4.1541,-4.1457,-4.1483,-4.1551,-4.16,-4.1611,-4.1645,-4.1718,-4.173,-4.1672,-4.179,-4.1809,-4.1894,-4.1924,-4.1881,-4.1888,-4.2118,-4.2121,-4.2123,-4.2116,0,0,0,0,0,0,-4.1317,-4.1344,-4.1375,-4.1458,-4.1487,-4.1612,-4.1602,-4.1615,-4.1658,-4.1659,-4.1742,-4.1754,-4.179,-4.1882,-4.1901,-4.1934,-4.1894,-4.2115,-4.2119,-4.2122,-4.2114,-4.2118,-4.2122,0,0,0,0,0,-4.1307,-4.1367,-4.1376,-4.1399,-4.1527,-4.1613,-4.163,-4.1671,-4.166,-4.1692,-4.1739,-4.1751,-4.1918,-4.189,-4.1912,-4.1947,-4.2113,-4.2118,-4.2122,-4.2112,-4.2117,-4.2122,0,0,0,0,0,0,-4.1286,-4.1378,-4.139,-4.1478,-4.1538,-4.1619,-4.166,-4.1676,-4.174,-4.1738,-4.1786,-4.1804,-4.1886,-4.1926,-4.1893,-4.2029,-4.2015,-4.2024,-4.2,-4.2006,-4.201,-4.1998,-4.19,0,0,0,0,0,-4.1291,-4.1354,-4.1432,-4.1502,-4.1531,-4.159,-4.163,-4.1656,-4.172,-4.1745,-4.1798,-4.1859,-4.1926,-4.1968,-4.2033,-4.212,-4.2138,-4.2155,-4.2159,-4.2163,-4.2169,-4.2218,-4.2226,-4.2139,-4.2139,-4.2139,0,0,-4.1303,-4.1361,-4.1398,-4.1499,-4.1548,-4.1612,-4.1611,-4.1679,-4.1726,-4.1755,-4.1838,-4.1879,-4.1951,-4.2037,-4.2078,-4.2072,-4.2198,-4.2168,-4.217,-4.2175,-4.2223,-4.2231,-4.2239,-4.2142,-4.2141,-4.2141,0,0,-4.1357,-4.1408,-4.1472,-4.1521,-4.1596,-4.1635,-4.165,-4.173,-4.1758,-4.1842,-4.1865,-4.1923,-4.2036,-4.2086,-4.2126,-4.22,-4.2214,-4.222,-4.2241,-4.2288,-4.2295,-4.2301,-4.2327,-4.2335,-4.2227,-4.2227,-4.2227,0,-4.1362,-4.1459,-4.1502,-4.1569,-4.1612,-4.1642,-4.1707,-4.1753,-4.1845,-4.1874,-4.1868,-4.2011,-4.2061,-4.2159,-4.2177,-4.2209,-4.2227,-4.221,-4.229,-4.2297,-4.2304,-4.2328,-4.2338,-4.2227,-4.2227,-4.2227,-4.2227,0,-4.1461,-4.1528,-4.1571,-4.1659,-4.1708,-4.1773,-4.1826,-4.187,-4.1893,-4.1932,-4.2018,-4.208,-4.2157,-4.2183,-4.2206,-4.2284,-4.2279,-4.2281,-4.2267,-4.2311,-4.2335,-4.2345,-4.2227,-4.2227,-4.2227,-4.2227,0,0,-4.1504,-4.1616,-4.1631,-4.1671,-4.1756,-4.1809,-4.1876,-4.1952,-4.1989,-4.2052,-4.2109,-4.2204,-4.2207,-4.2252,-4.2281,-4.2322,-4.2376,-4.232,-4.2322,-4.2327,-4.2466,-4.2463,-4.2473,-4.2386,-4.2388,-4.239,-4.2459,0,-4.1568,-4.1688,-4.1729,-4.1828,-4.189,-4.192,-4.1978,-4.2037,-4.2076,-4.2134,-4.2178,-4.2245,-4.2243,-4.2271,-4.2313,-4.236,-4.2404,-4.2356,-4.2439,-4.2441,-4.2419,-4.2486,-4.2483,-4.2545,-4.2469,-4.2471,-4.2472,0,-4.1658,-4.1722,-4.1827,-4.1904,-4.1932,-4.1983,-4.2057,-4.2113,-4.218,-4.2205,-4.2256,-4.2282,-4.2353,-4.2337,-4.2435,-4.2402,-4.2438,-4.2467,-4.247,-4.2478,-4.2458,-4.2495,-4.2567,-4.2575,-4.2488,-4.2486,-4.2485,0,-4.1677,-4.179,-4.1868,-4.1901,-4.1994,-4.2029,-4.2069,-4.2135,-4.2178,-4.2243,-4.2271,-4.2343,-4.2382,-4.2437,-4.2482,-4.2466,-4.2576,-4.2563,-4.2599,-4.2597,-4.2619,-4.2617,-4.2696,-4.2645,-4.2645,-4.2644,-4.2644,0,-4.1743,-4.1806,-4.1878,-4.1925,-4.1997,-4.2044,-4.2113,-4.2155,-4.2214,-4.227,-4.23,-4.2352,-4.2409,-4.2468,-4.2504,-4.258,-4.2597,-4.262,-4.2628,-4.2616,-4.2613,-4.264,-4.2636,-4.2647,-4.2646,-4.2646,-4.2646,0,-4.1777,-4.1827,-4.1914,-4.1994,-4.2016,-4.2065,-4.2134,-4.2181,-4.2222,-4.2293,-4.2312,-4.2376,-4.2448,-4.2498,-4.259,-4.2614,-4.2696,-4.2704,-4.2673,-4.2677,-4.2709,-4.2705,-4.2807,-4.2823,-4.2761,-4.2762,-4.2762,0,-4.1815,-4.1864,-4.195,-4.199,-4.203,-4.2094,-4.2138,-4.2186,-4.2231,-4.2312,-4.2349,-4.2423,-4.2484,-4.2598,-4.2652,-4.2723,-4.2733,-4.2764,-4.2744,-4.273,-4.2733,-4.2729,-4.2733,-4.2767,-4.2767,-4.2768,-4.2768,0,-4.1877,-4.19,-4.1962,-4.2034,-4.2086,-4.2145,-4.2204,-4.2235,-4.2294,-4.2343,-4.2416,-4.2464,-4.2558,-4.2631,-4.2707,-4.2749,-4.2768,-4.2774,-4.2786,-4.2774,-4.2753,-4.2764,-4.268,-4.2771,-4.2771,-4.2771,-4.277,-4.277,-4.1914,-4.1959,-4.2026,-4.2095,-4.2144,-4.2199,-4.2247,-4.2294,-4.2356,-4.2436,-4.2462,-4.2538,-4.2604,-4.2708,-4.2751,-4.2811,-4.2809,-4.2826,-4.2831,-4.2834,-4.2833,-4.2744,-4.2825,-4.2825,-4.2825,-4.2825,-4.2825,0,-4.1977,-4.2022,-4.2085,-4.2166,-4.222,-4.2234,-4.23,-4.2344,-4.2411,-4.2471,-4.2531,-4.2615,-4.2686,-4.2747,-4.282,-4.2857,-4.2868,-4.2874,-4.2872,-4.2881,-4.2831,-4.2813,-4.2864,-4.2864,-4.2864,-4.2864,-4.2864,-4.2864,-4.2016,-4.2093,-4.2123,-4.2224,-4.2269,-4.2343,-4.238,-4.243,-4.2478,-4.2571,-4.263,-4.2669,-4.273,-4.2808,-4.2873,-4.2889,-4.2915,-4.2919,-4.2937,-4.2889,-4.2884,-4.288,-4.2863,-4.2924,-4.2924,-4.2982,-4.2982,-4.2983]},{"header":{"parameterUnit":"m.s-1","parameterCategory":1,"la1":30.2991,"la2":30.254,"lo1":-89.0895,"lo2":-89.0444,"dy":0.0017,"dx":0.0017,"nx":28,"ny":28,"refTime":"2024-04-28T09:00:00:Z","depth":0,"parameterNumber":3,"parameterNumberName":"V-component_of_WINDS"},"data":[0,0,0,0,0,0,0,0,0,0,0,0,0,0,0,0,0,0,0,0,0,0,0,0,0,0,0,0,0,0,0,0,0,0,0,0,0,0,0,0,0,0,0,0,0,0,0,0,0,0,0,0,0,0,0,0,0,0,6.8418,6.842,0,6.8621,6.8623,6.8626,6.8624,6.8622,6.8619,6.8617,6.8821,6.8828,6.8836,0,0,0,0,0,0,0,0,0,0,0,0,0,6.8024,6.8032,6.8417,6.842,6.8422,6.8621,6.8623,6.8626,6.8625,6.8622,6.8618,6.8615,6.8818,6.8827,6.8837,0,0,0,0,0,0,0,0,0,0,0,0,0,6.8208,6.8034,6.8417,6.8446,6.845,6.862,6.8624,6.8627,6.8626,6.8622,6.8618,6.8614,6.8815,6.8827,6.8838,6.8991,0,0,6.8875,6.888,0,0,0,0,0,0,0,0,6.8198,6.8222,6.8439,6.8444,6.845,6.8593,6.856,6.8749,6.8627,6.8559,6.8616,6.8612,6.8748,6.8765,6.8812,6.9001,6.901,6.8876,6.8883,6.8888,6.8891,0,0,0,0,0,0,0,6.8185,6.8214,6.8498,6.8442,6.8449,6.8447,6.8469,6.8596,6.8673,6.8565,6.8565,6.8589,6.875,6.88,6.8817,6.9013,6.8875,6.8886,6.8893,6.8898,6.9338,6.9342,0,0,0,0,0,0,6.8167,6.8203,6.8491,6.8504,6.8311,6.8458,6.8482,6.8551,6.8672,6.8687,6.8592,6.8588,6.8782,6.8803,6.8824,6.9011,6.8888,6.8899,6.8906,6.9333,6.9339,6.9344,0,0,0,0,0,0,6.8158,6.8192,6.8483,6.8354,6.8391,6.8469,6.8546,6.8557,6.8608,6.8693,6.8706,6.863,6.878,6.8807,6.895,6.9018,6.8904,6.8915,6.9328,6.9335,6.9341,6.9387,0,0,0,0,0,0,6.8147,6.8189,6.8249,6.8355,6.8398,6.8607,6.8551,6.8564,6.8629,6.8625,6.8732,6.8745,6.8779,6.8932,6.8962,6.9032,6.8924,6.9322,6.9331,6.9339,6.9379,6.9394,6.9407,0,0,0,0,0,6.8133,6.8253,6.8252,6.8287,6.8474,6.8611,6.8635,6.8672,6.8634,6.8694,6.8749,6.8742,6.9006,6.8947,6.898,6.9055,6.9318,6.9328,6.9338,6.9373,6.9391,6.9407,0,0,0,0,0,0,6.8151,6.8267,6.8268,6.8426,6.8509,6.8611,6.8688,6.869,6.8785,6.8777,6.8818,6.8842,6.8985,6.9034,6.8967,6.921,6.9157,6.9175,6.9172,6.919,6.9204,6.9188,6.8934,0,0,0,0,0,6.8174,6.8277,6.8372,6.8502,6.8544,6.8609,6.867,6.8691,6.8778,6.8813,6.8878,6.8962,6.9064,6.913,6.9228,6.9387,6.941,6.9455,6.9469,6.948,6.9494,6.9581,6.9603,6.9377,6.9377,6.9377,0,0,6.8221,6.8297,6.8359,6.8508,6.8575,6.8679,6.8638,6.875,6.8828,6.8829,6.8969,6.902,6.9116,6.9267,6.9337,6.9313,6.9561,6.9493,6.9501,6.9509,6.9594,6.9615,6.9634,6.9384,6.9383,6.9382,0,0,6.8361,6.8429,6.8545,6.8614,6.8716,6.8758,6.8786,6.8888,6.8923,6.9064,6.9067,6.9159,6.9334,6.9402,6.946,6.9627,6.9623,6.9658,6.9729,6.9814,6.9832,6.9848,6.9907,6.9927,6.9672,6.9672,6.9672,0,6.8407,6.8565,6.8604,6.8718,6.8782,6.8791,6.8908,6.8972,6.91,6.9144,6.9116,6.9336,6.9401,6.9569,6.9609,6.9656,6.9688,6.9645,6.9826,6.9843,6.9858,6.9915,6.9937,6.9675,6.9675,6.9674,6.9674,0,6.8616,6.8726,6.8807,6.8933,6.9007,6.9122,6.9177,6.9247,6.9263,6.9308,6.9451,6.953,6.9644,6.9686,6.9701,6.9856,6.9838,6.9818,6.9765,6.9882,6.9936,6.9958,6.968,6.9679,6.9678,6.9677,0,0,6.8772,6.8919,6.8948,6.9005,6.9119,6.9204,6.9319,6.9433,6.9492,6.958,6.9677,6.9825,6.9807,6.9873,6.9896,6.9971,7.0098,6.9941,6.9944,6.9967,7.0273,7.0287,7.0312,7.0097,7.0101,7.0104,7.0264,0,6.8923,6.9129,6.9167,6.9346,6.9447,6.9457,6.9557,6.9637,6.9683,6.9775,6.9824,6.9929,6.9897,6.9937,7.0011,7.0066,7.0159,7.0055,7.0186,7.019,7.0161,7.034,7.0355,7.0503,7.0286,7.0289,7.0292,0,6.9127,6.9223,6.9411,6.9512,6.9556,6.9645,6.9753,6.9841,6.9932,6.996,7.0034,7.0049,7.0168,7.0111,7.0274,7.0203,7.0258,7.0294,7.03,7.0313,7.0247,7.0357,7.055,7.0572,7.0326,7.0323,7.0321,0,6.9222,6.9397,6.9533,6.9581,6.9702,6.9765,6.9818,6.9905,6.9971,7.0065,7.0108,7.0213,7.0271,7.0352,7.0395,7.035,7.0556,7.0502,7.0581,7.058,7.0624,7.062,7.0828,7.0661,7.066,7.066,7.0659,0,6.9386,6.9501,6.9577,6.966,6.9789,6.9832,6.9958,7.001,7.0088,7.0181,7.0195,7.0282,7.0334,7.0428,7.0463,7.0593,7.0619,7.0644,7.0651,7.0642,7.0639,7.0679,7.0669,7.0666,7.0664,7.0663,7.0662,0,6.9513,6.9568,6.9717,6.982,6.9848,6.9939,7.0026,7.0107,7.0153,7.027,7.03,7.0372,7.0484,7.0535,7.0672,7.0696,7.0844,7.0844,7.0813,7.0816,7.0892,7.0884,7.1132,7.1167,7.0977,7.0978,7.098,0,6.9614,6.9703,6.9816,6.988,6.9935,7.0038,7.0106,7.0152,7.0221,7.0332,7.04,7.0512,7.0604,7.0782,7.0845,7.0951,7.0954,7.1034,7.0969,7.0958,7.0955,7.0949,7.0957,7.1045,7.1047,7.1048,7.1049,0,6.9788,6.9811,6.9909,7.0017,7.0098,7.0185,7.027,7.0321,7.038,7.0458,7.0573,7.0645,7.0786,7.0897,7.1007,7.106,7.1065,7.1069,7.1093,7.1084,7.1063,7.1075,7.0844,7.1063,7.1062,7.1061,7.106,7.1059,6.9905,6.9984,7.0076,7.0185,7.0254,7.0334,7.0415,7.0471,7.0568,7.0688,7.0709,7.0831,7.092,7.1068,7.1126,7.1221,7.1202,7.1237,7.1245,7.1253,7.1257,7.1048,7.1241,7.1241,7.1241,7.124,7.124,0,7.0079,7.0139,7.0238,7.0358,7.0443,7.0441,7.0536,7.0607,7.0715,7.0798,7.0889,7.1021,7.1129,7.1202,7.1311,7.1374,7.1378,7.1401,7.1396,7.1408,7.1268,7.1237,7.1395,7.1395,7.1395,7.1395,7.1395,7.1395,7.018,7.0314,7.0348,7.0517,7.0576,7.0697,7.0751,7.0824,7.089,7.1038,7.1128,7.1175,7.1254,7.1369,7.1468,7.1487,7.1526,7.1549,7.1567,7.1434,7.1418,7.1403,7.1373,7.1558,7.1558,7.1699,7.17,7.1701]}]]